Location: Cuzcurrita-R�o Tir�n
(42.5415°N, 2.9642°W)
Time: 10:12:25
(UTC+00:00)

DELTA 2 R/B (1) - Visible Passes

Search period start: 14 May 2021 00:00
Search period end: 24 May 2021 00:00
Orbit: 790 x 803 km, 39.6° (Epoch: 13 May)

Date Brightness Start Highest point End Pass type
(mag) Time Alt. Az. Time Alt. Az. Time Alt. Az.
14 May 5.5 21:00:33 10° WSW 21:04:02 17° SW 21:06:44 12° S visible
15 May 5.4 20:29:26 10° WSW 20:33:10 18° SW 20:36:53 10° S visible
16 May 5.4 19:58:20 10° WSW 20:02:17 20° SSW 20:06:13 10° SSE visible
